Overview Statistics Trail Chart Weather Telemetry Raw packets
 

This is the latest recevied weather packets stored in our database for station/object KO4ZGL-13. If no packets are shown the sender has not sent any weather packets the latest 10 day(s).

<< 66 67 68 69 70 71 72 >>
Time Temp. Humidity Pressure Rain* Wind** Luminosity Snow
1788177848 23.33° C 99% 1019.8 hPa 0 mm - 68 W/m² -
1788177537 23.33° C 99% 1019.8 hPa 0 mm - 48 W/m² -
1788177233 23.33° C 99% 1019.7 hPa 0 mm - 49 W/m² -
1788176927 23.33° C 99% 1020.1 hPa 0 mm - 39 W/m² -
1788176626 23.33° C 99% 1019.7 hPa 0 mm - 34 W/m² -
1788176335 23.33° C 99% 1019.9 hPa 0 mm - 26 W/m² -
1788176021 23.33° C 99% 1019.9 hPa 0 mm - 23 W/m² -
1788175716 23.33° C 99% 1019.7 hPa 0 mm - 16 W/m² -
1788175411 22.78° C 99% 1019.9 hPa 0 mm - 11 W/m² -
1788175107 22.78° C 99% 1020.1 hPa 0 mm - 10 W/m² -
1788174810 22.78° C 99% 1019.7 hPa 0 mm - 6 W/m² -
1788174498 22.78° C 99% 1020 hPa 0 mm - 4 W/m² -
1788174193 22.78° C 99% 1019.7 hPa 0 mm - 3 W/m² -
1788173891 22.78° C 99% 1019.8 hPa 0 mm - 1 W/m² -
1788173588 22.78° C 99% 1019.7 hPa 0 mm - 0 W/m² -
1788173288 22.78° C 99% 1019.7 hPa 0 mm - 0 W/m² -
1788172984 22.78° C 99% 1019.7 hPa 0 mm - 0 W/m² -
1788172684 22.78° C 99% 1019.6 hPa 0 mm - 0 W/m² -
1788172380 22.78° C 99% 1019.7 hPa 0 mm - 0 W/m² -
1788172079 22.78° C 99% 1019.7 hPa 0 mm - 0 W/m² -
1788171774 22.78° C 99% 1019.5 hPa 0 mm - 0 W/m² -
1788171470 22.78° C 99% 1019.5 hPa 0 mm - 0 W/m² -
1788171165 22.78° C 99% 1019.5 hPa 0 mm - 0 W/m² -
1788170861 22.78° C 99% 1019.6 hPa 0 mm - 0 W/m² -
1788170557 22.78° C 99% 1019.5 hPa 0 mm - 0 W/m² -

* Rain latest hour (hover to see other rain measurements)
** Current wind speed in m/s (hover to see current wind gust speed)